Location: Dimond District
(37.8033°N, 122.2128°W)
Time: 17:36:53
(UTC+00:00)

Cosmos 2219 Rocket - Pass Details

Date: 03 August 2024
Orbit: 826 x 847 km, 71.0° (Epoch: 07 September)

Event Time Altitude Azimuth Distance (km) Brightness Sun altitude
Exits shadow 12:12:50 11° 267° (W) 2,397 4.0 -11.6°
Maximum altitude 12:16:18 18° 307° (NW) 1,970 3.9 -11.0°
Drops below altitude 10° 12:20:03 10° 349° (NNW) 2,473 4.9 -10.4°
Sets 12:23:23 0° 8° (N) 3,414 6.0 -9.9°
